Hourly Data Report for June 25, 2020

WESTERN HEAD
NOVA SCOTIA
Current Station Operator: ECCC - MSC

43°59'24.070" N
64°39'51.008" W
10.10 m
8206240
71411
WWE

Download Data

Hourly Data (June 2020)
Hourly Data Report for June 25, 2020
TIME
LST
Temp Definition
°C
Dew Point Definition
°C
Rel Hum Definition
%
Precip. Amount Definition
mm

Wind Dir Definition
10's deg

Wind Spd Definition
km/h
Visibility Definition
km
Stn Press Definition
kPa
Hmdx Definition


Wind Chill Definition


Weather Definition


00:00 14.1 14.1 100 0.0 19 9   100.97     LegendNANA
01:00 13.6 13.6 100 0.0 20 11   100.97     LegendNANA
02:00 13.2 13.2 100 0.0 20 11   100.93     LegendNANA
03:00 13.0 13.0 100 0.0 20 14   100.96     LegendNANA
04:00 12.8 12.8 100 0.0 20 13   100.97     LegendNANA
05:00 12.8 12.8 100 0.0 19 13   101.00     LegendNANA
06:00 13.0 13.0 100 0.0 18 13   101.05     LegendNANA
07:00 13.3 13.3 100 0.0 20 14   101.07     LegendNANA
08:00 13.9 13.9 100 0.0 22 8   101.07     LegendNANA
09:00 14.1 14.1 100 0.0 18 11   101.07     LegendNANA
10:00 14.2 14.2 100 0.0 22 9   101.10     LegendNANA
11:00 14.9 14.9 100 0.0 20 11   101.11     LegendNANA
12:00 15.2 14.6 96 0.0 22 13   101.13     LegendNANA
13:00 15.5 14.3 93 0.0 21 10   101.14     LegendNANA
14:00 15.8 14.3 91 0.0 22 12   101.11     LegendNANA
15:00 16.9 14.2 84 0.0 21 11   101.10     LegendNANA
16:00 28.3 12.4 37 0.0 24 18   101.10 31   LegendNANA
17:00 29.7 11.6 33 0.0 28 24   101.13 32   LegendNANA
18:00 26.5 12.1 41 0.0 28 18   101.19 29   LegendNANA
19:00 23.7 12.4 49 0.0 26 15   101.26 26   LegendNANA
20:00 15.3 11.5 78 0.0 24 9   101.33     LegendNANA
21:00 13.1 11.3 89 0.0 22 8   101.40     LegendNANA
22:00 12.8 12.4 98 0.0 22 10   101.42     LegendNANA
23:00 12.4 12.4 100 0.0 21 10   101.43     LegendNANA

Notes on Data Quality.

Legend

  • E = Estimated
  • M = Missing
  • NA = Not Available*
  • [empty] = Indicates an unobserved value
Date modified: